• In Germany
  • List of Countries
  • For 7 days
  • Water Temperature
  • Satellite Maps
  • Weather Map
  • Weather Widgets
  • user-avatar
    Login

    Hourly Weather Sumgayit

    Today, 21 November, Tuesday

    Time Temperature Precipitation Wind Pressure Humidity
    00:00 +15°C° 0 mm 5 mps 736 mmHg 42%
    01:00 +14°C° 0 mm 5 mps 736 mmHg 43%
    02:00 +14°C° 0 mm 5 mps 736 mmHg 43%
    03:00 +14°C° 0 mm 5 mps 735 mmHg 44%
    04:00 +14°C° 0 mm 5 mps 735 mmHg 44%
    05:00 +14°C° 0 mm 5 mps 735 mmHg 44%
    06:00 +13°C° 0 mm 4 mps 735 mmHg 44%
    07:00 +14°C° 0 mm 5 mps 734 mmHg 42%
    08:00 +15°C° 0 mm 5 mps 734 mmHg 40%
    09:00 +16°C° 0 mm 5 mps 734 mmHg 38%
    10:00 +17°C° 0 mm 6 mps 734 mmHg 36%
    11:00 +19°C° 0 mm 6 mps 733 mmHg 34%
    12:00 +20°C° 0 mm 7 mps 733 mmHg 32%
    13:00 +20°C° 0 mm 7 mps 732 mmHg 32%
    14:00 +20°C° 0 mm 6 mps 732 mmHg 32%
    15:00 +20°C° 0 mm 6 mps 731 mmHg 32%
    16:00 +19°C° 0 mm 6 mps 731 mmHg 34%
    17:00 +17°C° 0 mm 6 mps 731 mmHg 36%
    18:00 +16°C° 0 mm 6 mps 731 mmHg 37%
    19:00 +16°C° 0 mm 6 mps 730 mmHg 38%
    20:00 +16°C° 0 mm 6 mps 730 mmHg 38%
    21:00 +15°C° 0 mm 6 mps 730 mmHg 39%
    22:00 +15°C° 0 mm 6 mps 730 mmHg 39%
    23:00 +15°C° 0 mm 6 mps 729 mmHg 39%

    Tomorrow, 22 November, Wednesday

    Time Temperature Precipitation Wind Pressure Humidity
    00:00 +15°C° 0 mm 5 mps 729 mmHg 39%
    01:00 +15°C° 0 mm 6 mps 729 mmHg 39%
    02:00 +15°C° 0 mm 6 mps 728 mmHg 39%
    03:00 +14°C° 0 mm 6 mps 728 mmHg 39%
    04:00 +14°C° 0 mm 6 mps 729 mmHg 39%
    05:00 +14°C° 0 mm 6 mps 729 mmHg 39%
    06:00 +14°C° 0 mm 6 mps 729 mmHg 39%
    07:00 +14°C° 0 mm 7 mps 730 mmHg 45%
    08:00 +13°C° 0 mm 8 mps 731 mmHg 52%
    09:00 +13°C° 0 mm 9 mps 732 mmHg 59%
    10:00 +13°C° 0 mm 10 mps 732 mmHg 58%
    11:00 +13°C° 0 mm 10 mps 733 mmHg 56%
    12:00 +13°C° 0 mm 11 mps 733 mmHg 55%
    13:00 +13°C° 0 mm 11 mps 734 mmHg 54%
    14:00 +12°C° 0 mm 11 mps 734 mmHg 54%
    15:00 +12°C° 0 mm 10 mps 735 mmHg 54%
    16:00 +11°C° 0.3 mm 10 mps 735 mmHg 58%
    17:00 +9°C° 0.3 mm 10 mps 736 mmHg 62%
    18:00 +8°C° 0.3 mm 10 mps 736 mmHg 66%
    19:00 +8°C° 0.2 mm 10 mps 737 mmHg 66%
    20:00 +7°C° 0.2 mm 10 mps 737 mmHg 66%
    21:00 +7°C° 0.2 mm 10 mps 737 mmHg 67%
    22:00 +7°C° 0.1 mm 9 mps 737 mmHg 68%
    23:00 +7°C° 0.1 mm 9 mps 737 mmHg 69%

    Day after tomorrow, 23 November, Thursday

    Time Temperature Precipitation Wind Pressure Humidity
    00:00 +6°C° 0.1 mm 9 mps 738 mmHg 70%
    01:00 +6°C° 0.2 mm 9 mps 738 mmHg 72%
    02:00 +6°C° 0.2 mm 8 mps 738 mmHg 73%
    03:00 +5°C° 0.2 mm 8 mps 738 mmHg 74%
    04:00 +5°C° 0.3 mm 7 mps 738 mmHg 75%
    05:00 +5°C° 0.3 mm 7 mps 738 mmHg 76%
    06:00 +5°C° 0.3 mm 7 mps 738 mmHg 77%
    07:00 +5°C° 0.5 mm 7 mps 739 mmHg 77%
    08:00 +4°C° 0.5 mm 6 mps 739 mmHg 77%
    09:00 +4°C° 0.5 mm 6 mps 739 mmHg 77%
    10:00 +5°C° 0.7 mm 5 mps 739 mmHg 78%
    11:00 +5°C° 0.7 mm 5 mps 739 mmHg 79%
    12:00 +5°C° 0.7 mm 4 mps 739 mmHg 80%
    13:00 +5°C° 0.2 mm 3 mps 739 mmHg 78%
    14:00 +6°C° 0.2 mm 2 mps 739 mmHg 76%
    15:00 +7°C° 0.2 mm 2 mps 739 mmHg 74%
    16:00 +7°C° 0 mm 1 mps 739 mmHg 74%
    17:00 +7°C° 0 mm 1 mps 740 mmHg 74%
    18:00 +7°C° 0 mm 1 mps 740 mmHg 74%
    19:00 +6°C° 0 mm 2 mps 740 mmHg 72%
    20:00 +6°C° 0 mm 2 mps 740 mmHg 70%
    21:00 +5°C° 0 mm 3 mps 740 mmHg 68%
    22:00 +5°C° 0 mm 3 mps 740 mmHg 66%
    23:00 +5°C° 0 mm 3 mps 740 mmHg 65%

    24 November, Friday

    Time Temperature Precipitation Wind Pressure Humidity
    00:00 +4°C° 0 mm 4 mps 740 mmHg 63%
    01:00 +4°C° 0 mm 4 mps 740 mmHg 62%
    02:00 +4°C° 0 mm 4 mps 740 mmHg 61%
    03:00 +4°C° 0 mm 4 mps 740 mmHg 60%
    04:00 +4°C° 0 mm 4 mps 741 mmHg 61%
    05:00 +4°C° 0 mm 3 mps 741 mmHg 63%
    06:00 +4°C° 0 mm 3 mps 741 mmHg 64%
    07:00 +5°C° 0 mm 3 mps 742 mmHg 65%
    08:00 +5°C° 0 mm 3 mps 742 mmHg 66%
    09:00 +7°C° 0 mm 3 mps 742 mmHg 67%
    10:00 +7°C° 0.2 mm 3 mps 742 mmHg 66%
    11:00 +7°C° 0.2 mm 3 mps 742 mmHg 65%
    12:00 +7°C° 0.2 mm 3 mps 742 mmHg 64%
    13:00 +7°C° 0.2 mm 3 mps 742 mmHg 62%
    14:00 +7°C° 0.2 mm 3 mps 742 mmHg 61%
    15:00 +7°C° 0.2 mm 3 mps 742 mmHg 60%
    16:00 +7°C° 0 mm 3 mps 742 mmHg 59%
    17:00 +7°C° 0 mm 3 mps 742 mmHg 59%
    18:00 +6°C° 0 mm 4 mps 743 mmHg 59%
    19:00 +5°C° 0 mm 3 mps 743 mmHg 57%
    20:00 +5°C° 0 mm 3 mps 743 mmHg 56%
    21:00 +5°C° 0 mm 3 mps 743 mmHg 54%
    22:00 +5°C° 0 mm 3 mps 743 mmHg 53%
    23:00 +4°C° 0 mm 3 mps 743 mmHg 52%

    25 November, Saturday

    Time Temperature Precipitation Wind Pressure Humidity
    00:00 +4°C° 0 mm 3 mps 743 mmHg 51%
    01:00 +4°C° 0 mm 4 mps 743 mmHg 53%
    02:00 +4°C° 0 mm 4 mps 743 mmHg 54%
    03:00 +4°C° 0 mm 4 mps 744 mmHg 55%
    04:00 +3°C° 0.1 mm 5 mps 744 mmHg 58%
    05:00 +3°C° 0.1 mm 5 mps 744 mmHg 61%
    06:00 +3°C° 0.1 mm 6 mps 745 mmHg 63%
    07:00 +4°C° 0.2 mm 6 mps 745 mmHg 64%
    08:00 +4°C° 0.2 mm 7 mps 746 mmHg 64%
    09:00 +4°C° 0.2 mm 7 mps 746 mmHg 64%
    10:00 +4°C° 0.3 mm 7 mps 746 mmHg 63%
    11:00 +5°C° 0.3 mm 7 mps 746 mmHg 62%
    12:00 +5°C° 0.3 mm 7 mps 747 mmHg 61%
    13:00 +5°C° 0.3 mm 7 mps 747 mmHg 62%
    14:00 +5°C° 0.3 mm 7 mps 747 mmHg 62%
    15:00 +5°C° 0.3 mm 7 mps 748 mmHg 63%
    16:00 +5°C° 0.2 mm 7 mps 748 mmHg 64%
    17:00 +4°C° 0.2 mm 7 mps 749 mmHg 64%
    18:00 +4°C° 0.2 mm 6 mps 749 mmHg 65%
    19:00 +4°C° 0.2 mm 6 mps 749 mmHg 65%
    20:00 +5°C° 0.2 mm 5 mps 750 mmHg 65%
    21:00 +5°C° 0.2 mm 5 mps 750 mmHg 65%
    22:00 +5°C° 0.3 mm 5 mps 750 mmHg 65%
    23:00 +5°C° 0.3 mm 5 mps 751 mmHg 64%

    26 November, Sunday

    Time Temperature Precipitation Wind Pressure Humidity
    00:00 +4°C° 0.3 mm 4 mps 751 mmHg 64%
    01:00 +4°C° 0.1 mm 4 mps 751 mmHg 64%
    02:00 +4°C° 0.1 mm 4 mps 751 mmHg 64%
    03:00 +4°C° 0.1 mm 3 mps 751 mmHg 64%
    04:00 +3°C° 0 mm 3 mps 751 mmHg 65%
    05:00 +4°C° 0 mm 2 mps 751 mmHg 66%
    06:00 +5°C° 0 mm 1 mps 751 mmHg 67%
    07:00 +6°C° 0 mm 1 mps 752 mmHg 64%
    08:00 +6°C° 0 mm 1 mps 752 mmHg 61%
    09:00 +7°C° 0 mm 1 mps 752 mmHg 57%
    10:00 +6°C° 0 mm 2 mps 752 mmHg 52%
    11:00 +7°C° 0 mm 3 mps 751 mmHg 47%
    12:00 +7°C° 0 mm 4 mps 751 mmHg 42%
    13:00 +7°C° 0 mm 4 mps 751 mmHg 41%
    14:00 +7°C° 0 mm 4 mps 750 mmHg 40%
    15:00 +7°C° 0 mm 4 mps 750 mmHg 39%
    16:00 +6°C° 0 mm 4 mps 750 mmHg 40%
    17:00 +6°C° 0 mm 4 mps 750 mmHg 42%
    18:00 +5°C° 0 mm 4 mps 750 mmHg 44%
    19:00 +5°C° 0 mm 4 mps 750 mmHg 43%
    20:00 +5°C° 0 mm 4 mps 750 mmHg 42%
    21:00 +4°C° 0 mm 4 mps 750 mmHg 41%
    22:00 +4°C° 0 mm 4 mps 750 mmHg 41%
    23:00 +4°C° 0 mm 3 mps 750 mmHg 41%
    Show more